Meteo Giornale » Osservazioni meteo Francia » Lione-Satolas

ore: 21:00 - Osservazioni Meteo Lione-Satolas
Lat. 45° 44' N Lon. 5° 5' E Alt. 248 metri s.l.m.

sereno

24 °C

Sereno

Temp. 24 Ore

15 °C

27 °C

Nord

7.4 Km/h

Dew point 10 °C

Umidità 41 %

Visibilità  10 Km

Il sole sorge alle ore 07:00

Il sole tramonta alle ore 20:18

Data e Ora Cielo e Fenomeni T °C DP °C Um. % Pres. hPa Vis. km Vento km/h
Oggi h: 21:00 sereno Sereno 24 10 41 1020 10 N 7.4
Oggi h: 20:30 sereno Sereno 24 10 41 1020 10 N 7.4
Oggi h: 20:00 sereno Sereno 25 10 38 1019 10 N 5.5
Oggi h: 19:30 sereno Sereno 26 10 36 1019 10 N 14.8
Oggi h: 19:00 sereno Sereno 26 9 34 1019 10 N/NE 9.3
Oggi h: 18:30 sereno Sereno 27 9 32 1020 10 N/NE 13
Oggi h: 18:00 sereno Sereno 27 8 30 1020 10 N 13
Oggi h: 17:30 sereno Sereno 27 9 32 1020 10 N/NE 11.1
Oggi h: 17:00 sereno Sereno 27 10 34 1020 10 N 14.8
Oggi h: 16:30 sereno Sereno 27 9 32 1020 10 N/NO 11.1
Oggi h: 16:00 sereno Sereno 27 10 34 1021 10 N 11.1
Oggi h: 15:30 sereno Sereno 27 9 32 1021 10 N/NO 13
Oggi h: 15:00 sereno Sereno 27 11 36 1021 10 N/NO 13
Oggi h: 14:30 sereno Sereno 26 11 39 1021 10 N 9.3
Oggi h: 14:00 sereno Sereno 26 11 39 1021 10 N 16.7
Oggi h: 13:30 sereno Sereno 26 11 39 1021 10 N 14.8
Oggi h: 13:00 sereno Sereno 25 12 44 1022 10 N 11.1
Oggi h: 12:30 sereno Sereno 24 13 50 1022 10 N/NO 14.8
Oggi h: 12:00 sereno Sereno 24 13 50 1022 10 N 13
Oggi h: 11:30 sereno Sereno 22 13 56 1022 10 N 9.3
Oggi h: 11:00 sereno Sereno 21 13 60 1022 10 N/NO 9.3
Oggi h: 10:30 sereno Sereno 21 13 60 1023 10 N 11.1
Oggi h: 10:00 sereno Sereno 20 13 64 1022 10 N 5.5
Oggi h: 09:30 sereno Sereno 19 13 68 1022 10 N 5.5
Oggi h: 09:00 sereno Sereno 19 12 63 1022 10 N 3.7
Oggi h: 08:30 sereno Sereno 18 12 67 1022 10 N 3.7
Oggi h: 08:00 sereno Sereno 17 12 72 1022 10 N 0
Oggi h: 07:30 sereno Sereno 16 12 77 1022 10 N 0
Oggi h: 07:00 sereno Sereno 15 12 82 1022 10 N 3.7
Oggi h: 06:30 sereno Sereno 15 12 82 1021 10 N 0
Oggi h: 06:00 sereno Sereno 16 12 77 1021 10 N 3.7
Oggi h: 05:30 sereno Sereno 16 12 77 1022 10 N 3.7
Oggi h: 05:00 sereno Sereno 17 12 72 1022 10 N 3.7
Oggi h: 04:30 sereno Sereno 17 11 67 1022 10 N 3.7
Oggi h: 04:00 sereno Sereno 17 12 72 1022 10 N 5.5
Oggi h: 03:30 sereno Sereno 18 11 63 1022 10 N 3.7
Oggi h: 03:00 sereno Sereno 18 12 67 1022 10 N 5.5
Oggi h: 02:30 sereno Sereno 18 12 67 1022 10 N/NO 9.3
Oggi h: 02:00 sereno Sereno 19 12 63 1022 10 N/NO 7.4
Oggi h: 01:30 sereno Sereno 19 11 59 1022 10 N 7.4
Oggi h: 01:00 sereno Sereno 19 12 63 1022 10 N 7.4
Oggi h: 00:30 sereno Sereno 19 12 63 1022 10 N/NE 9.3
Oggi h: 00:00 sereno Sereno 21 12 56 1022 10 NE 11.1
Ieri h: 23:30 sereno Sereno 21 12 56 1022 10 NE 9.3
Ieri h: 23:00 sereno Sereno 22 12 53 1022 10 NE 7.4
Ieri h: 22:30 sereno Sereno 22 12 53 1021 10 E/NE 11.1
Ieri h: 22:00 sereno Sereno 22 12 53 1021 10 N/NE 11.1